Content
SEND FEEDBACK

Daily
Averages
Monthly
Summary
United States of America

BAYOU LA BATRE, ALABAMA


Home > North America > United States > Alabama
Elevation: 0 feet     Latitude: 30 23N     Longitude: 088 14W

WEATHER
 
SELECT A DAY
Number of Records: 198,160;   Date Range: 8/14/97 - 9/30/14
 
SHARE

PRINT THIS DATA

[ ← Previous Day ]
WEATHER ALMANAC - AUGUST 6, 2014
[ Next Day → ]
[ °C ]   °F
Weather ElementAverageHighLow
Temperature78.3 °F90 °F (12:53 pm)73 °F (2:53 am)
Dewpoint73.6 °F77 °F (7:53 pm)69.1 °F (2:53 pm)
Humidity86.4 %97 % (12:53 am)54 % (12:53 pm)
Barometer30.03 in30.07 in (8:53 am)29.99 in (4:53 pm)
Wind Speed1 mph8.1 mph (1:53 pm)
Weather ElementAverage
Visibility6.3 mi
Wind DirectionNNE (38.5 °)

Weather ElementTotal
Precipitation---
Cooling Degree Days16.5 (Base 65)
Growing Degree Days31.5 (Base 50)
Averaged from 33 records on August 6, 2014
WEATHER CONDITIONS BREAKOUT
WIND DIRECTION BREAKOUT
WEATHER BY HOUR - AUGUST 6, 2014
[ °C ]   °F
Local TimeTemperatureDewpointHumidityBarometerVisibilityWind DirectionWind SpeedGust SpeedPrecipitationEventsConditions
12:53 AM73.9 °F73.0 °F97 %30.05 in4.0 miCalmClear
1:36 AM73.9 °F73.0 °F97 %30.04 in2.5 miCalmClear
1:53 AM73.9 °F73.0 °F97 %30.04 in5.0 miCalmClear
2:53 AM73.0 °F72.0 °F96 %30.03 in4.0 miCalmClear
3:14 AM73.0 °F72.0 °F96 %30.02 in1.8 miCalmClear
3:20 AM73.0 °F72.0 °F96 %30.02 in3.0 miCalmClear
3:31 AM73.0 °F72.0 °F96 %30.03 in2.0 miCalmClear
3:41 AM73.0 °F72.0 °F96 %30.03 in4.0 miCalmClear
3:53 AM73.0 °F72.0 °F96 %30.04 in4.0 miCalmClear
4:53 AM73.0 °F72.0 °F96 %30.03 in5.0 miCalmClear
5:31 AM73.0 °F72.0 °F96 %30.03 in2.5 miCalmPartly Cloudy
5:39 AM73.0 °F72.0 °F96 %30.04 in1.2 miCalmPartly Cloudy
5:51 AM73.4 °F71.6 °F94 %30.04 in2.5 miCalmClear
5:53 AM73.0 °F72.0 °F96 %30.04 in2.5 miCalmClear
6:01 AM73.0 °F72.0 °F96 %30.04 in1.2 miCalmClear
6:08 AM73.0 °F72.0 °F96 %30.04 in6.0 miCalmClear
6:53 AM73.9 °F73.0 °F97 %30.06 in6.0 miCalmClear
7:53 AM80.1 °F75.9 °F87 %30.06 in8.0 miCalmClear
8:53 AM82.9 °F75.9 °F79 %30.07 in10.0 miWNW (290°)4.6 mphClear
9:53 AM87.1 °F75.0 °F67 %30.07 in10.0 miNNW (340°)5.8 mphClear
10:53 AM88.0 °F73.0 °F61 %30.07 in10.0 miCalmClear
12:53 PM90.0 °F71.1 °F54 %30.05 in10.0 miCalmMostly Cloudy
1:53 PM90.0 °F75.9 °F63 %30.03 in10.0 miSSW (210°)8.1 mphMostly Cloudy
2:53 PM82.9 °F69.1 °F63 %30.02 in10.0 miWSW (250°)5.8 mphClear
3:53 PM84.9 °F73.0 °F67 %30.00 in10.0 miCalmPartly Cloudy
4:53 PM87.1 °F75.9 °F69 %29.99 in10.0 miVariable5.8 mphClear
5:53 PM84.9 °F75.0 °F72 %29.99 in10.0 miCalmPartly Cloudy
6:53 PM82.9 °F75.9 °F79 %30.00 in10.0 miCalmClear
7:53 PM80.1 °F77.0 °F90 %29.99 in9.0 miCalmClear
8:53 PM79.0 °F77.0 °F94 %30.00 in7.0 miCalmClear
9:53 PM82.0 °F77.0 °F85 %30.01 in10.0 miSouth (180°)3.5 mphClear
10:53 PM79.0 °F77.0 °F94 %30.01 in10.0 miCalmClear
11:53 PM78.1 °F75.9 °F93 %30.02 in6.0 miCalmClear
Hourly data recorded from KPQL, located miles away from Bayou La Batre, Alabama







STORIES FROM OUR PARTNERS